N3TJJ-2 Weather Reports


Display with metric or nautical units.
time (UTC)temp
F
wind
direction
speed
MPH
gust
MPH
rain 1hr
in
rain 24hr
in
rain mn
in
humidity
%
barometer
mb
20260504231725 69 29 9.0 16.0 0.00 0.00 0.00 47 1010.0
20260504231117 69 38 8.0 15.0 0.00 0.00 0.00 46 1010.0
20260504230518 69 41 9.0 16.0 0.00 0.00 0.00 46 1010.1
20260504225920 70 39 9.0 18.0 0.00 0.00 0.00 45 1010.1
20260504225327 70 38 11.0 16.0 0.00 0.00 0.00 44 1010.1
20260504224718 70 44 7.0 18.0 0.00 0.00 0.00 45 1010.1
20260504224117 71 56 8.0 16.0 0.00 0.00 0.00 44 1010.0
20260504223516 71 32 9.0 16.0 0.00 0.00 0.00 43 1010.0
20260504222916 71 46 10.0 16.0 0.00 0.00 0.00 44 1010.0
20260504222314 71 30 9.0 15.0 0.00 0.00 0.00 44 1010.1
20260504221726 71 46 8.0 21.0 0.00 0.00 0.00 44 1010.1
20260504221119 71 35 8.0 18.0 0.00 0.00 0.00 43 1010.0
20260504220516 72 42 9.0 20.0 0.00 0.00 0.00 42 1010.1
20260504215916 72 56 13.0 21.0 0.00 0.00 0.00 42 1010.1
20260504215320 72 45 13.0 21.0 0.00 0.00 0.00 41 1010.1
20260504214717 73 42 10.0 17.0 0.00 0.00 0.00 41 1010.1
20260504214114 73 39 9.0 15.0 0.00 0.00 0.00 42 1010.1
20260504213516 74 28 7.0 15.0 0.00 0.00 0.00 41 1010.0
20260504212914 73 79 8.0 20.0 0.00 0.00 0.00 39 1010.0
20260504212315 73 92 11.0 20.0 0.00 0.00 0.00 39 1010.1
20260504211718 73 72 8.0 16.0 0.00 0.00 0.00 39 1010.1
20260504211121 73 85 8.0 17.0 0.00 0.00 0.00 40 1010.1
20260504210532 74 80 10.0 17.0 0.00 0.00 0.00 38 1010.2
20260504205956 73 77 10.0 15.0 0.00 0.00 0.00 39 1010.1
20260504205316 74 85 9.0 17.0 0.00 0.00 0.00 39 1010.2
20260504204716 73 75 7.0 20.0 0.00 0.00 0.00 39 1010.1
20260504204115 73 85 12.0 20.0 0.00 0.00 0.00 40 1010.2
20260504203523 73 50 12.0 20.0 0.00 0.00 0.00 37 1010.2
20260504202914 73 73 8.0 15.0 0.00 0.00 0.00 40 1010.3
20260504202315 73 96 9.0 16.0 0.00 0.00 0.00 39 1010.4
20260504201720 73 64 9.0 22.0 0.00 0.00 0.00 39 1010.4
20260504201117 72 55 11.0 22.0 0.00 0.00 0.00 39 1010.5
20260504200516 73 90 12.0 22.0 0.00 0.00 0.00 38 1010.7
20260504195926 72 89 16.0 22.0 0.00 0.00 0.00 40 1010.7
20260504195315 72 90 13.0 22.0 0.00 0.00 0.00 41 1010.9
20260504194717 72 91 13.0 19.0 0.00 0.00 0.00 41 1011.0
20260504194114 71 91 13.0 19.0 0.00 0.00 0.00 40 1011.0
20260504193516 72 89 11.0 23.0 0.00 0.00 0.00 39 1011.2
20260504193009 71 90 15.0 29.0 0.00 0.00 0.00 41 1011.2
20260504192320 71 93 13.0 29.0 0.00 0.00 0.00 38 1011.4
20260504191717 71 72 9.0 21.0 0.00 0.00 0.00 39 1011.4
20260504191117 72 92 15.0 21.0 0.00 0.00 0.00 39 1011.5
20260504190516 71 89 12.0 21.0 0.00 0.00 0.00 39 1011.4
20260504185918 72 90 13.0 21.0 0.00 0.00 0.00 40 1011.6
20260504185315 72 62 7.0 17.0 0.00 0.00 0.00 41 1011.6
20260504184720 72 62 8.0 17.0 0.00 0.00 0.00 39 1011.7
20260504184114 72 71 10.0 17.0 0.00 0.00 0.00 40 1011.8
20260504183526 71 92 10.0 18.0 0.00 0.00 0.00 40 1011.9
20260504182915 71 88 12.0 20.0 0.00 0.00 0.00 41 1012.0
20260504182314 70 95 14.0 24.0 0.00 0.00 0.00 40 1012.0
20260504181719 70 87 15.0 24.0 0.00 0.00 0.00 41 1012.0
20260504181120 70 95 12.0 18.0 0.00 0.00 0.00 40 1012.2
20260504180514 71 61 10.0 18.0 0.00 0.00 0.00 41 1012.2
20260504175914 70 58 7.0 18.0 0.00 0.00 0.00 42 1012.4
20260504175320 70 80 11.0 18.0 0.00 0.00 0.00 39 1012.4
20260504174716 70 75 10.0 17.0 0.00 0.00 0.00 43 1012.5
20260504174114 69 84 8.0 22.0 0.00 0.00 0.00 41 1012.6
20260504173519 69 91 10.0 22.0 0.00 0.00 0.00 42 1012.8
20260504172914 70 42 4.0 19.0 0.00 0.00 0.00 42 1012.8
20260504171714 69 85 9.0 17.0 0.00 0.00 0.00 43 1013.0
20260504171128 69 92 11.0 16.0 0.00 0.00 0.00 40 1013.2
20260504170519 69 78 8.0 17.0 0.00 0.00 0.00 44 1013.2
20260504151117 64 95 13.0 19.0 0.00 0.00 0.00 44 1014.8
20260504150518 64 83 9.0 17.0 0.00 0.00 0.00 45 1014.9
20260504141114 60 32 5.0 13.0 0.00 0.00 0.00 53 1015.0
20260504140517 60 66 6.0 12.0 0.00 0.00 0.00 54 1015.0
20260504130517 55 62 6.0 12.0 0.00 0.00 0.00 61 1015.5
20260504110526 47 25 1.0 4.0 0.00 0.00 0.00 64 1015.7
20260504081719 0 0.0 0.0 0.00 0.00 0.00 1015.9
20260504081114 0 0.0 0.0 0.00 0.00 0.00 1015.8
20260504080524 0 0.0 0.0 0.00 0.00 0.00 1015.8
20260504050518 47 44 1.0 3.0 0.00 0.00 0.00 61 1016.0
20260504045921 47 62 2.0 4.0 0.00 0.00 0.00 62 1016.0
20260504045314 47 52 1.0 4.0 0.00 0.00 0.00 62 1016.0
20260504044724 47 0 0.0 4.0 0.00 0.00 0.00 62 1016.0
20260504044114 47 51 1.0 4.0 0.00 0.00 0.00 62 1016.0
20260504043513 47 52 1.0 2.0 0.00 0.00 0.00 63 1015.9
20260504042917 47 49 1.0 2.0 0.00 0.00 0.00 62 1015.8
20260504042317 47 0 0.0 0.0 0.00 0.00 0.00 63 1015.8
20260504041714 47 0 0.0 3.0 0.00 0.00 0.00 62 1015.7
20260504041114 47 0 0.0 3.0 0.00 0.00 0.00 62 1015.7
20260504040519 47 67 1.0 3.0 0.00 0.00 0.00 61 1015.6
20260504035921 48 68 1.0 4.0 0.00 0.00 0.00 61 1015.6
20260504035317 48 74 2.0 5.0 0.00 0.00 0.00 60 1015.7
20260504034722 48 73 2.0 5.0 0.00 0.00 0.00 60 1015.6
20260504034114 48 71 2.0 5.0 0.00 0.00 0.00 60 1015.6
20260504033517 48 74 3.0 5.0 0.00 0.00 0.00 60 1015.6
20260504032919 48 72 2.0 5.0 0.00 0.00 0.00 60 1015.5
20260504032317 48 73 2.0 5.0 0.00 0.00 0.00 59 1015.4
20260504031720 48 79 3.0 5.0 0.00 0.00 0.00 59 1015.3
20260504031114 48 63 1.0 3.0 0.00 0.00 0.00 60 1015.3
20260504030519 48 67 1.0 4.0 0.00 0.00 0.00 59 1015.3
20260504025919 49 69 1.0 5.0 0.00 0.00 0.00 58 1015.3
20260504025317 49 72 2.0 4.0 0.00 0.00 0.00 57 1015.2
20260504024725 49 59 1.0 3.0 0.00 0.00 0.00 58 1015.2
20260504024113 49 63 2.0 3.0 0.00 0.00 0.00 57 1015.2
20260504023513 50 63 1.0 4.0 0.00 0.00 0.00 56 1015.3
20260504022915 50 66 1.0 3.0 0.00 0.00 0.00 56 1015.3
20260504022315 50 68 2.0 4.0 0.00 0.00 0.00 54 1015.4
20260504021720 51 70 2.0 5.0 0.00 0.00 0.00 53 1015.4
20260504021114 51 74 3.0 5.0 0.00 0.00 0.00 53 1015.3
20260504020520 51 71 1.0 4.0 0.00 0.00 0.00 54 1015.4
20260504015920 51 71 2.0 4.0 0.00 0.00 0.00 52 1015.4
20260504015316 51 68 2.0 5.0 0.00 0.00 0.00 52 1015.3
20260504014726 51 72 2.0 4.0 0.00 0.00 0.00 52 1015.2
20260504014124 52 74 3.0 4.0 0.00 0.00 0.00 51 1015.1
20260504013518 52 66 2.0 3.0 0.00 0.00 0.00 51 1015.1
20260504012918 51 63 1.0 3.0 0.00 0.00 0.00 52 1015.0
20260504012313 52 0 0.0 0.0 0.00 0.00 0.00 53 1015.0
20260504011716 52 0 0.0 2.0 0.00 0.00 0.00 53 1015.0
20260504011119 52 0 0.0 2.0 0.00 0.00 0.00 50 1014.9
20260504010518 53 64 1.0 4.0 0.00 0.00 0.00 49 1014.9
20260504005920 53 65 1.0 2.0 0.00 0.00 0.00 50 1014.8
20260504005314 53 69 1.0 6.0 0.00 0.00 0.00 49 1014.8
20260504004715 54 75 2.0 7.0 0.00 0.00 0.00 48 1014.8
20260504004113 54 78 3.0 8.0 0.00 0.00 0.00 47 1014.7
20260504003518 54 79 3.0 6.0 0.00 0.00 0.00 47 1014.6
20260504002916 54 76 2.0 6.0 0.00 0.00 0.00 46 1014.5
20260504002313 55 78 2.0 6.0 0.00 0.00 0.00 46 1014.4
20260504001717 55 72 2.0 5.0 0.00 0.00 0.00 45 1014.3
20260504001114 56 85 3.0 7.0 0.00 0.00 0.00 44 1014.3
20260504000521 56 85 4.0 7.0 0.00 0.00 0.00 43 1014.2
20260503235927 56 85 3.0 9.0 0.00 0.00 0.00 42 1014.1
20260503235314 57 79 3.0 8.0 0.00 0.00 0.00 42 1014.0
20260503234724 57 82 3.0 9.0 0.00 0.00 0.00 42 1014.0
20260503234114 58 72 1.0 10.0 0.00 0.00 0.00 41 1013.9
20260503233519 58 89 3.0 10.0 0.00 0.00 0.00 40 1013.9
20260503232916 58 92 4.0 10.0 0.00 0.00 0.00 40 1013.9
20260503232314 58 97 2.0 13.0 0.00 0.00 0.00 40 1013.9